Location: Central Falls
(41.8900°N, 71.3929°W)
Time: 04:27:35
(UTC+00:00)

Vanguard 2 - Pass Details

Date: 04 December 2023
Orbit: 554 x 2918 km, 32.9° (Epoch: 01 March)

Event Time Altitude Azimuth Distance (km) Brightness Sun altitude
Rises 03:27:57 0° 250° (WSW) 6,717 12.4 -65.7°
Reaches altitude 10° 03:32:46 10° 246° (WSW) 5,571 11.9 -66.3°
Enters shadow 03:34:19 14° 245° (WSW) 5,200 11.7 -66.5°
Maximum altitude 03:48:14 55° 176° (S) 2,498 - -67.9°
Drops below altitude 10° 03:58:20 10° 102° (ESE) 3,760 - -68.8°
Sets 04:00:56 0° 97° (E) 4,469 - -69.0°
